• în Republica Moldova
  • Lista ţărilor
  • Pe 7 zile
  • Temperatura apei
  • Hartă satelitară
  • Meteo pe hartă
  • Widget-uri
  • user-avatar
    Intrare

    Meteo pe oră la Kaprun

    Astăzi, 29 Aprilie, Sâmbătă

    Timp Temperatura Precipitaţii Vânt Presiune Umiditate
    00:00 -10°C° 0,1 mm 2 m/s 591 mmHg 96%
    01:00 -10°C° 0 mm 2 m/s 592 mmHg 95%
    02:00 -10°C° 0,1 mm 2 m/s 592 mmHg 95%
    03:00 -10°C° 0,1 mm 2 m/s 592 mmHg 95%
    04:00 -10°C° 0,1 mm 2 m/s 592 mmHg 94%
    05:00 -9°C° 0 mm 2 m/s 593 mmHg 93%
    06:00 -8°C° 0 mm 2 m/s 593 mmHg 91%
    07:00 -6°C° 0 mm 2 m/s 594 mmHg 89%
    08:00 -3°C° 0 mm 1 m/s 594 mmHg 85%
    09:00 -2°C° 0 mm 1 m/s 595 mmHg 81%
    10:00 0°C° 0 mm 1 m/s 595 mmHg 77%
    11:00 0°C° 0 mm 1 m/s 595 mmHg 77%
    12:00 +1°C° 0 mm 1 m/s 595 mmHg 76%
    13:00 +2°C° 0 mm 1 m/s 596 mmHg 76%
    14:00 +2°C° 0 mm 1 m/s 596 mmHg 77%
    15:00 +2°C° 0 mm 1 m/s 595 mmHg 78%
    16:00 +2°C° 0 mm 1 m/s 595 mmHg 79%
    17:00 -1°C° 0 mm 1 m/s 594 mmHg 85%
    18:00 -4°C° 0 mm 1 m/s 592 mmHg 90%
    19:00 -8°C° 0 mm 0 m/s 591 mmHg 95%
    20:00 -8°C° 0 mm 1 m/s 591 mmHg 95%
    21:00 -9°C° 0 mm 1 m/s 591 mmHg 96%
    22:00 -9°C° 0 mm 1 m/s 591 mmHg 96%
    23:00 -8°C° 0 mm 1 m/s 591 mmHg 96%

    Mâine, 30 Aprilie, Duminică

    Timp Temperatura Precipitaţii Vânt Presiune Umiditate
    00:00 -8°C° 0 mm 1 m/s 592 mmHg 95%
    01:00 -7°C° 0 mm 1 m/s 592 mmHg 95%
    02:00 -7°C° 0 mm 1 m/s 592 mmHg 95%
    03:00 -8°C° 0 mm 2 m/s 592 mmHg 95%
    04:00 -8°C° 0 mm 2 m/s 592 mmHg 95%
    05:00 -7°C° 0 mm 2 m/s 593 mmHg 92%
    06:00 -5°C° 0 mm 2 m/s 593 mmHg 89%
    07:00 -1°C° 0 mm 1 m/s 594 mmHg 86%
    08:00 -2°C° 0 mm 2 m/s 594 mmHg 84%
    09:00 +1°C° 0 mm 2 m/s 595 mmHg 81%
    10:00 +2°C° 0 mm 2 m/s 595 mmHg 79%
    11:00 +3°C° 0 mm 2 m/s 595 mmHg 78%
    12:00 +3°C° 0 mm 2 m/s 595 mmHg 77%
    13:00 +4°C° 0 mm 2 m/s 594 mmHg 76%
    14:00 +4°C° 0 mm 2 m/s 594 mmHg 77%
    15:00 +4°C° 0 mm 2 m/s 594 mmHg 78%
    16:00 +4°C° 0 mm 2 m/s 593 mmHg 78%
    17:00 +2°C° 0 mm 2 m/s 593 mmHg 83%
    18:00 +1°C° 0 mm 2 m/s 592 mmHg 88%
    19:00 -2°C° 0 mm 2 m/s 591 mmHg 93%
    20:00 -2°C° 0 mm 3 m/s 591 mmHg 94%
    21:00 -4°C° 0 mm 3 m/s 591 mmHg 94%
    22:00 -5°C° 0 mm 3 m/s 591 mmHg 94%
    23:00 -5°C° 0 mm 3 m/s 591 mmHg 94%

    Poimâine, 1 Mai, Luni

    Timp Temperatura Precipitaţii Vânt Presiune Umiditate
    00:00 -5°C° 0 mm 3 m/s 591 mmHg 94%
    01:00 -5°C° 0 mm 3 m/s 591 mmHg 94%
    02:00 -6°C° 0 mm 3 m/s 590 mmHg 94%
    03:00 -6°C° 0 mm 3 m/s 590 mmHg 93%
    04:00 -7°C° 0 mm 3 m/s 590 mmHg 93%
    05:00 -6°C° 0 mm 3 m/s 590 mmHg 90%
    06:00 -4°C° 0 mm 2 m/s 591 mmHg 87%
    07:00 -2°C° 0 mm 2 m/s 591 mmHg 85%
    08:00 -1°C° 0 mm 2 m/s 592 mmHg 81%
    09:00 +1°C° 0 mm 2 m/s 593 mmHg 78%
    10:00 +3°C° 0 mm 2 m/s 593 mmHg 75%
    11:00 +3°C° 0,1 mm 2 m/s 593 mmHg 78%
    12:00 +2°C° 0,1 mm 3 m/s 593 mmHg 81%
    13:00 +2°C° 0,1 mm 3 m/s 593 mmHg 84%
    14:00 +1°C° 1,4 mm 3 m/s 593 mmHg 87%
    15:00 +1°C° 1,4 mm 2 m/s 593 mmHg 91%
    16:00 -1°C° 1,4 mm 2 m/s 593 mmHg 94%
    17:00 -2°C° 2,3 mm 2 m/s 593 mmHg 95%
    18:00 -3°C° 2,3 mm 2 m/s 593 mmHg 97%
    19:00 -4°C° 2,3 mm 2 m/s 593 mmHg 98%
    20:00 -2°C° 1,8 mm 1 m/s 593 mmHg 98%
    21:00 -3°C° 1,8 mm 1 m/s 593 mmHg 98%
    22:00 -3°C° 1,8 mm 1 m/s 593 mmHg 98%
    23:00 -3°C° 0,7 mm 1 m/s 593 mmHg 98%

    2 Mai, Marţi

    Timp Temperatura Precipitaţii Vânt Presiune Umiditate
    00:00 -3°C° 0,7 mm 1 m/s 593 mmHg 98%
    01:00 -4°C° 0,7 mm 1 m/s 593 mmHg 98%
    02:00 -4°C° 0,5 mm 1 m/s 593 mmHg 98%
    03:00 -4°C° 0,5 mm 1 m/s 593 mmHg 98%
    04:00 -4°C° 0,5 mm 1 m/s 593 mmHg 98%
    05:00 -3°C° 0,5 mm 1 m/s 594 mmHg 97%
    06:00 -4°C° 0,5 mm 0 m/s 594 mmHg 97%
    07:00 -3°C° 0,5 mm 0 m/s 594 mmHg 97%
    08:00 -1°C° 0,1 mm 1 m/s 595 mmHg 97%
    09:00 0°C° 0,1 mm 1 m/s 595 mmHg 97%
    10:00 +1°C° 0,1 mm 1 m/s 595 mmHg 97%
    11:00 +1°C° 0 mm 1 m/s 595 mmHg 96%
    12:00 +1°C° 0 mm 1 m/s 595 mmHg 95%
    13:00 +2°C° 0 mm 1 m/s 596 mmHg 95%
    14:00 +1°C° 0,1 mm 2 m/s 595 mmHg 94%
    15:00 +2°C° 0,1 mm 2 m/s 595 mmHg 94%
    16:00 +2°C° 0,1 mm 2 m/s 595 mmHg 93%
    17:00 +1°C° 0,1 mm 2 m/s 595 mmHg 94%
    18:00 +1°C° 0,1 mm 1 m/s 594 mmHg 96%
    19:00 0°C° 0,1 mm 1 m/s 594 mmHg 97%
    20:00 -1°C° 0 mm 1 m/s 594 mmHg 97%
    21:00 -4°C° 0 mm 2 m/s 594 mmHg 96%
    22:00 -5°C° 0 mm 2 m/s 594 mmHg 96%
    23:00 -5°C° 0 mm 2 m/s 594 mmHg 96%

    3 Mai, Miercuri

    Timp Temperatura Precipitaţii Vânt Presiune Umiditate
    00:00 -5°C° 0 mm 2 m/s 593 mmHg 95%
    01:00 -6°C° 0 mm 2 m/s 593 mmHg 94%
    02:00 -6°C° 0 mm 2 m/s 593 mmHg 94%
    03:00 -6°C° 0 mm 2 m/s 593 mmHg 93%
    04:00 -6°C° 0 mm 2 m/s 592 mmHg 92%
    05:00 -5°C° 0 mm 2 m/s 593 mmHg 91%
    06:00 -4°C° 0 mm 2 m/s 594 mmHg 90%
    07:00 -2°C° 0 mm 2 m/s 594 mmHg 89%
    08:00 -1°C° 0 mm 2 m/s 595 mmHg 87%
    09:00 +1°C° 0 mm 2 m/s 595 mmHg 85%
    10:00 +2°C° 0 mm 2 m/s 595 mmHg 82%
    11:00 +3°C° 0,1 mm 2 m/s 595 mmHg 82%
    12:00 +3°C° 0,1 mm 2 m/s 595 mmHg 82%
    13:00 +4°C° 0,1 mm 2 m/s 595 mmHg 82%
    14:00 +3°C° 0,3 mm 2 m/s 595 mmHg 83%
    15:00 +3°C° 0,3 mm 2 m/s 595 mmHg 84%
    16:00 +3°C° 0,3 mm 2 m/s 595 mmHg 86%
    17:00 +2°C° 0,5 mm 2 m/s 594 mmHg 89%
    18:00 +1°C° 0,5 mm 2 m/s 594 mmHg 93%
    19:00 0°C° 0,5 mm 1 m/s 593 mmHg 97%
    20:00 -1°C° 0,2 mm 1 m/s 593 mmHg 97%
    21:00 -2°C° 0,2 mm 1 m/s 593 mmHg 98%
    22:00 -4°C° 0,2 mm 0 m/s 592 mmHg 99%
    23:00 -4°C° 0,2 mm 0 m/s 592 mmHg 98%

    4 Mai, Joi

    Timp Temperatura Precipitaţii Vânt Presiune Umiditate
    00:00 -4°C° 0,2 mm 0 m/s 592 mmHg 97%
    01:00 -4°C° 0,2 mm 0 m/s 592 mmHg 97%
    02:00 -4°C° 0,4 mm 0 m/s 592 mmHg 96%
    03:00 -4°C° 0,4 mm 0 m/s 592 mmHg 96%
    04:00 -5°C° 0,4 mm 0 m/s 591 mmHg 96%
    05:00 -3°C° 0,4 mm 0 m/s 592 mmHg 95%
    06:00 -2°C° 0,4 mm 0 m/s 593 mmHg 93%
    07:00 0°C° 0,4 mm 0 m/s 593 mmHg 91%
    08:00 0°C° 0,4 mm 0 m/s 594 mmHg 90%
    09:00 +2°C° 0,4 mm 1 m/s 594 mmHg 88%
    10:00 +3°C° 0,4 mm 1 m/s 594 mmHg 87%
    11:00 +3°C° 0,6 mm 1 m/s 594 mmHg 87%
    12:00 +3°C° 0,6 mm 1 m/s 594 mmHg 87%
    13:00 +4°C° 0,6 mm 1 m/s 594 mmHg 87%
    14:00 +3°C° 1,2 mm 1 m/s 593 mmHg 89%
    15:00 +3°C° 1,2 mm 1 m/s 593 mmHg 91%
    16:00 +3°C° 1,2 mm 1 m/s 593 mmHg 92%
    17:00 +2°C° 1,3 mm 1 m/s 593 mmHg 94%
    18:00 +2°C° 1,3 mm 1 m/s 593 mmHg 96%
    19:00 +1°C° 1,3 mm 1 m/s 593 mmHg 98%
    20:00 +1°C° 1,3 mm 1 m/s 593 mmHg 98%
    21:00 0°C° 1,3 mm 1 m/s 593 mmHg 98%
    22:00 0°C° 1,3 mm 1 m/s 593 mmHg 98%
    23:00 0°C° 0,8 mm 1 m/s 593 mmHg 98%
    Arată mai mult